KB6LA Weather Reports


Display with metric or nautical units.
time (UTC)temp
F
wind
direction
speed
MPH
gust
MPH
rain 1hr
in
rain 24hr
in
rain mn
in
humidity
%
barometer
mb
20260509053140 59 276 1.0 3.0 0.00 0.00 0.00 91 1013.4
20260509052633 59 271 0.0 2.0 0.00 0.00 0.00 91 1013.8
20260509052125 59 310 1.0 3.0 0.00 0.00 0.00 91 1013.8
20260509051617 59 282 2.0 3.0 0.00 0.00 0.00 91 1013.4
20260509051110 59 273 1.0 3.0 0.00 0.00 0.00 91 1013.4
20260509050602 59 266 3.0 3.0 0.00 0.00 0.00 91 1013.4
20260509045547 59 288 0.0 2.0 0.00 0.00 0.00 91 1013.4
20260509045040 59 272 1.0 3.0 0.00 0.00 0.00 91 1013.4
20260509044024 59 251 1.0 3.0 0.00 0.00 0.00 91 1013.4
20260509043517 59 243 2.0 3.0 0.00 0.00 0.00 91 1013.4
20260509043009 59 312 2.0 4.0 0.00 0.00 0.00 91 1013.4
20260509041954 58 294 0.0 2.0 0.00 0.00 0.00 91 1013.1
20260509041447 58 261 0.0 4.0 0.00 0.00 0.00 91 1013.1
20260509040939 58 243 1.0 6.0 0.00 0.00 0.00 91 1013.1
20260509035924 59 215 4.0 7.0 0.00 0.00 0.00 91 1013.1
20260509035417 59 214 4.0 7.0 0.00 0.00 0.00 91 1013.1
20260509034908 59 298 2.0 7.0 0.00 0.00 0.00 91 1013.4
20260509033853 59 210 4.0 7.0 0.00 0.00 0.00 90 1013.1
20260509033346 59 258 3.0 7.0 0.00 0.00 0.00 90 1013.1
20260509031823 59 217 3.0 8.0 0.00 0.00 0.00 90 1012.8
20260509031315 59 259 4.0 7.0 0.00 0.00 0.00 90 1012.8
20260509030807 59 257 6.0 7.0 0.00 0.00 0.00 90 1012.4
20260509030300 59 303 4.0 7.0 0.00 0.00 0.00 89 1012.4
20260509025753 59 246 4.0 8.0 0.00 0.00 0.00 89 1012.4
20260509025244 59 270 2.0 8.0 0.00 0.00 0.00 89 1012.4
20260509024230 59 219 6.0 9.0 0.00 0.00 0.00 88 1012.4
20260509023215 60 163 6.0 8.0 0.00 0.00 0.00 88 1012.4
20260509022159 60 274 4.0 8.0 0.00 0.00 0.00 87 1012.4
20260509021651 60 259 6.0 8.0 0.00 0.00 0.00 87 1012.4
20260509021144 60 267 4.0 8.0 0.00 0.00 0.00 87 1012.4
20260509020637 60 274 4.0 10.0 0.00 0.00 0.00 87 1012.8
20260509020128 60 260 5.0 10.0 0.00 0.00 0.00 87 1012.4
20260509015622 60 228 6.0 10.0 0.00 0.00 0.00 87 1012.4
20260509014606 60 274 1.0 9.0 0.00 0.00 0.00 87 1012.4
20260509014058 60 261 5.0 9.0 0.00 0.00 0.00 87 1012.4
20260509013551 60 261 6.0 9.0 0.00 0.00 0.00 86 1012.4
20260509013043 61 218 6.0 9.0 0.00 0.00 0.00 86 1012.4
20260509012535 61 238 6.0 11.0 0.00 0.00 0.00 86 1012.4
20260509012027 61 256 6.0 13.0 0.00 0.00 0.00 86 1012.4
20260509011520 61 243 10.0 14.0 0.00 0.00 0.00 85 1012.4
20260509011013 62 223 6.0 14.0 0.00 0.00 0.00 85 1012.4
20260509005958 61 212 8.0 13.0 0.00 0.00 0.00 85 1012.4
20260509005449 62 252 7.0 13.0 0.00 0.00 0.00 84 1012.4
20260509004943 62 206 8.0 13.0 0.00 0.00 0.00 85 1012.4
20260509004434 62 244 6.0 13.0 0.00 0.00 0.00 83 1012.4
20260509003926 63 255 7.0 13.0 0.00 0.00 0.00 82 1012.4
20260509003419 63 245 5.0 13.0 0.00 0.00 0.00 83 1012.4
20260509002912 63 262 10.0 13.0 0.00 0.00 0.00 83 1012.4
20260509002404 63 229 9.0 13.0 0.00 0.00 0.00 80 1012.4
20260509001349 64 246 7.0 13.0 0.00 0.00 0.00 81 1012.8
20260509000842 64 263 5.0 17.0 0.00 0.00 0.00 81 1012.4
20260508235826 64 215 7.0 15.0 0.00 0.00 0.00 80 1012.4
20260508235318 64 237 12.0 14.0 0.00 0.00 0.00 78 1012.4
20260508234810 65 211 6.0 14.0 0.00 0.00 0.00 80 1012.4
20260508234303 64 237 10.0 14.0 0.00 0.00 0.00 79 1012.4
20260508233755 65 266 8.0 14.0 0.00 0.00 0.00 79 1012.4
20260508233248 65 285 9.0 13.0 0.00 0.00 0.00 79 1012.4
20260508232740 65 229 8.0 14.0 0.00 0.00 0.00 79 1012.4
20260508232232 65 251 9.0 15.0 0.00 0.00 0.00 79 1012.8
20260508231724 65 236 9.0 15.0 0.00 0.00 0.00 78 1012.4
20260508231218 65 225 6.0 14.0 0.00 0.00 0.00 78 1012.8
20260508230709 65 281 8.0 14.0 0.00 0.00 0.00 78 1012.8
20260508230202 65 218 8.0 15.0 0.00 0.00 0.00 78 1012.8
20260508225654 65 223 10.0 15.0 0.00 0.00 0.00 78 1012.8
20260508225147 66 205 9.0 14.0 0.00 0.00 0.00 75 1012.8
20260508224640 65 249 9.0 16.0 0.00 0.00 0.00 78 1013.1
20260508224132 65 260 7.0 16.0 0.00 0.00 0.00 78 1013.1
20260508223625 66 273 6.0 15.0 0.00 0.00 0.00 77 1013.1
20260508223116 65 220 7.0 16.0 0.00 0.00 0.00 77 1013.1
20260508222101 66 246 9.0 14.0 0.00 0.00 0.00 77 1013.4
20260508221553 66 187 7.0 13.0 0.00 0.00 0.00 78 1013.1
20260508221046 66 255 8.0 13.0 0.00 0.00 0.00 77 1013.4
20260508220538 65 265 7.0 16.0 0.00 0.00 0.00 78 1013.4
20260508220031 65 248 13.0 16.0 0.00 0.00 0.00 76 1013.4
20260508215523 65 232 9.0 15.0 0.00 0.00 0.00 76 1013.4
20260508214508 66 266 6.0 14.0 0.00 0.00 0.00 75 1013.8
20260508213452 65 233 6.0 14.0 0.00 0.00 0.00 76 1013.8
20260508212945 66 253 8.0 14.0 0.00 0.00 0.00 74 1013.8
20260508211930 66 236 5.0 15.0 0.00 0.00 0.00 76 1013.8
20260508211422 66 256 7.0 14.0 0.00 0.00 0.00 75 1014.1
20260508210915 67 209 6.0 14.0 0.00 0.00 0.00 74 1014.1
20260508210407 67 238 6.0 13.0 0.00 0.00 0.00 74 1014.1
20260508205900 67 203 6.0 14.0 0.00 0.00 0.00 75 1014.1
20260508205352 66 193 6.0 14.0 0.00 0.00 0.00 75 1014.1
20260508203829 66 272 7.0 11.0 0.00 0.00 0.00 75 1014.1
20260508203321 66 219 7.0 13.0 0.00 0.00 0.00 76 1014.1
20260508202814 65 239 9.0 16.0 0.00 0.00 0.00 76 1014.5
20260508202307 66 239 12.0 16.0 0.00 0.00 0.00 75 1014.5
20260508201759 66 276 4.0 14.0 0.00 0.00 0.00 77 1014.5
20260508201251 67 243 5.0 13.0 0.00 0.00 0.00 74 1014.5
20260508200744 67 207 8.0 13.0 0.00 0.00 0.00 75 1014.5
20260508195728 67 250 8.0 14.0 0.00 0.00 0.00 75 1014.5
20260508194713 67 201 5.0 11.0 0.00 0.00 0.00 75 1014.5
20260508194205 66 228 5.0 13.0 0.00 0.00 0.00 77 1014.5
20260508193658 66 238 4.0 13.0 0.00 0.00 0.00 75 1014.8
20260508193150 66 207 7.0 11.0 0.00 0.00 0.00 75 1014.5
20260508192643 66 239 3.0 13.0 0.00 0.00 0.00 76 1014.8
20260508192135 66 252 5.0 13.0 0.00 0.00 0.00 75 1014.8
20260508191628 66 297 4.0 10.0 0.00 0.00 0.00 76 1014.8
20260508191119 66 184 7.0 9.0 0.00 0.00 0.00 76 1014.8
20260508190612 66 245 6.0 11.0 0.00 0.00 0.00 76 1014.8
20260508190104 65 218 6.0 11.0 0.00 0.00 0.00 77 1015.1
20260508185557 65 200 5.0 10.0 0.00 0.00 0.00 77 1015.1
20260508185049 66 212 2.0 9.0 0.00 0.00 0.00 77 1015.1
20260508184542 65 172 5.0 10.0 0.00 0.00 0.00 77 1015.1
20260508184034 65 231 7.0 10.0 0.00 0.00 0.00 77 1015.1
20260508183527 66 245 3.0 10.0 0.00 0.00 0.00 76 1015.1
20260508183019 65 242 2.0 9.0 0.00 0.00 0.00 76 1015.1
20260508182512 65 284 4.0 13.0 0.00 0.00 0.00 77 1015.1
20260508182003 65 214 4.0 13.0 0.00 0.00 0.00 78 1015.1
20260508180948 64 180 4.0 10.0 0.00 0.00 0.00 79 1015.1
20260508175933 65 227 5.0 7.0 0.00 0.00 0.00 75 1015.5
20260508174918 66 193 3.0 4.0 0.00 0.00 0.00 73 1015.1
20260508173903 66 286 0.0 4.0 0.00 0.00 0.00 74 1015.5
20260508173355 65 331 1.0 4.0 0.00 0.00 0.00 76 1015.5
20260508172848 64 249 3.0 4.0 0.00 0.00 0.00 77 1015.5
20260508172340 64 266 1.0 7.0 0.00 0.00 0.00 77 1015.5
20260508171325 64 205 1.0 6.0 0.00 0.00 0.00 78 1015.5
20260508170817 64 209 1.0 4.0 0.00 0.00 0.00 77 1015.5
20260508170310 64 223 2.0 4.0 0.00 0.00 0.00 77 1015.5
20260508165802 64 219 2.0 4.0 0.00 0.00 0.00 78 1015.5
20260508165254 63 221 3.0 4.0 0.00 0.00 0.00 79 1015.1
20260508164747 63 229 3.0 6.0 0.00 0.00 0.00 79 1015.5
20260508164239 63 219 5.0 7.0 0.00 0.00 0.00 79 1015.5
20260508163731 63 39 1.0 7.0 0.00 0.00 0.00 79 1015.5
20260508163224 63 63 3.0 6.0 0.00 0.00 0.00 79 1015.1
20260508162717 63 222 1.0 4.0 0.00 0.00 0.00 79 1015.1
20260508162209 63 46 1.0 4.0 0.00 0.00 0.00 79 1015.1
20260508161702 63 234 2.0 4.0 0.00 0.00 0.00 79 1015.1
20260508161153 63 200 2.0 3.0 0.00 0.00 0.00 79 1015.1
20260508160646 63 113 2.0 3.0 0.00 0.00 0.00 79 1015.1
20260508160138 63 342 0.0 2.0 0.00 0.00 0.00 79 1015.5
20260508155631 63 258 1.0 2.0 0.00 0.00 0.00 80 1015.1
20260508155124 63 290 0.0 4.0 0.00 0.00 0.00 81 1015.1
20260508154615 62 38 2.0 4.0 0.00 0.00 0.00 81 1015.1
20260508153600 62 290 0.0 3.0 0.00 0.00 0.00 82 1015.5
20260508153053 62 275 0.0 3.0 0.00 0.00 0.00 83 1015.5
20260508152545 61 162 2.0 4.0 0.00 0.00 0.00 83 1015.1
20260508152037 61 104 4.0 4.0 0.00 0.00 0.00 82 1015.5
20260508151530 61 172 3.0 4.0 0.00 0.00 0.00 83 1015.5
20260508151023 61 336 0.0 6.0 0.00 0.00 0.00 84 1015.5
20260508150007 61 161 3.0 7.0 0.00 0.00 0.00 84 1015.5
20260508144444 61 259 1.0 4.0 0.00 0.00 0.00 84 1015.5
20260508143937 61 162 2.0 4.0 0.00 0.00 0.00 84 1015.5
20260508143429 61 158 1.0 4.0 0.00 0.00 0.00 84 1015.5
20260508142922 61 159 2.0 4.0 0.00 0.00 0.00 85 1015.5
20260508141906 61 113 4.0 6.0 0.00 0.00 0.00 85 1015.5
20260508141359 60 275 0.0 6.0 0.00 0.00 0.00 85 1015.5
20260508140851 60 145 4.0 4.0 0.00 0.00 0.00 85 1015.1
20260508140344 60 278 0.0 2.0 0.00 0.00 0.00 86 1015.1
20260508135835 60 279 0.0 3.0 0.00 0.00 0.00 86 1015.1
20260508135328 60 253 1.0 4.0 0.00 0.00 0.00 85 1015.1
20260508134820 61 114 3.0 4.0 0.00 0.00 0.00 85 1015.5
20260508134313 61 58 2.0 4.0 0.00 0.00 0.00 85 1015.1
20260508133805 61 119 4.0 4.0 0.00 0.00 0.00 85 1015.1
20260508133258 61 341 0.0 3.0 0.00 0.00 0.00 85 1015.1
20260508132750 60 60 1.0 3.0 0.00 0.00 0.00 86 1015.1
20260508132243 61 55 2.0 3.0 0.00 0.00 0.00 85 1015.1
20260508131736 61 26 0.0 4.0 0.00 0.00 0.00 85 1015.1
20260508130212 61 3 2.0 3.0 0.00 0.00 0.00 86 1015.1
20260508125705 61 355 0.0 4.0 0.00 0.00 0.00 86 1014.8
20260508125157 61 350 0.0 6.0 0.00 0.00 0.00 86 1014.8
20260508124649 61 63 4.0 6.0 0.00 0.00 0.00 86 1014.8
20260508124142 61 352 1.0 4.0 0.00 0.00 0.00 86 1014.8
20260508123127 61 27 1.0 4.0 0.00 0.00 0.00 86 1014.5
20260508122112 61 350 1.0 2.0 0.00 0.00 0.00 86 1014.5
20260508121603 61 316 0.0 2.0 0.00 0.00 0.00 86 1014.5
20260508121056 61 116 1.0 6.0 0.00 0.00 0.00 86 1014.5
20260508120042 61 53 3.0 6.0 0.00 0.00 0.00 86 1014.5
20260508115533 61 338 1.0 7.0 0.00 0.00 0.00 86 1014.5
20260508115025 60 50 4.0 7.0 0.00 0.00 0.00 87 1014.5
20260508114518 60 2 3.0 6.0 0.00 0.00 0.00 87 1014.5
20260508114011 60 26 1.0 4.0 0.00 0.00 0.00 87 1014.5
20260508113503 60 40 1.0 2.0 0.00 0.00 0.00 87 1014.5
20260508112449 60 347 1.0 2.0 0.00 0.00 0.00 87 1014.5
20260508111433 60 342 0.0 3.0 0.00 0.00 0.00 87 1014.5
20260508110925 60 127 0.0 3.0 0.00 0.00 0.00 87 1014.5
20260508110418 60 57 3.0 3.0 0.00 0.00 0.00 87 1014.5
20260508105403 60 344 1.0 3.0 0.00 0.00 0.00 87 1014.5
20260508104855 60 30 1.0 3.0 0.00 0.00 0.00 87 1014.5
20260508104347 60 266 0.0 3.0 0.00 0.00 0.00 87 1014.5
20260508103839 60 189 3.0 3.0 0.00 0.00 0.00 87 1014.5
20260508103332 60 11 0.0 3.0 0.00 0.00 0.00 87 1014.5
20260508102824 60 326 1.0 2.0 0.00 0.00 0.00 87 1014.5
20260508102317 60 330 0.0 4.0 0.00 0.00 0.00 87 1014.5
20260508101809 60 1 1.0 4.0 0.00 0.00 0.00 87 1014.5
20260508101302 60 316 0.0 1.0 0.00 0.00 0.00 87 1014.5
20260508100753 60 317 0.0 1.0 0.00 0.00 0.00 87 1014.5
20260508100246 60 290 1.0 1.0 0.00 0.00 0.00 87 1014.5
20260508095739 60 315 1.0 2.0 0.00 0.00 0.00 87 1014.5
20260508095231 60 313 0.0 2.0 0.00 0.00 0.00 88 1014.5
20260508094216 59 308 1.0 3.0 0.00 0.00 0.00 88 1014.5
20260508093708 59 288 2.0 4.0 0.00 0.00 0.00 88 1014.5
20260508093201 59 283 3.0 4.0 0.00 0.00 0.00 89 1014.5
20260508091637 60 264 0.0 2.0 0.00 0.00 0.00 90 1014.5
20260508091131 60 244 1.0 2.0 0.00 0.00 0.00 90 1014.5
20260508090622 59 242 1.0 2.0 0.00 0.00 0.00 90 1014.8
20260508090115 59 243 2.0 2.0 0.00 0.00 0.00 89 1014.5
20260508085608 60 266 1.0 1.0 0.00 0.00 0.00 89 1014.5
20260508085100 60 267 0.0 1.0 0.00 0.00 0.00 89 1014.8
20260508084552 60 270 1.0 1.0 0.00 0.00 0.00 89 1014.5
20260508084045 60 271 1.0 2.0 0.00 0.00 0.00 89 1014.8
20260508083537 60 254 1.0 2.0 0.00 0.00 0.00 89 1014.8
20260508083030 60 228 2.0 2.0 0.00 0.00 0.00 89 1014.8
20260508082522 60 255 0.0 1.0 0.00 0.00 0.00 88 1014.8
20260508082014 60 256 0.0 1.0 0.00 0.00 0.00 88 1014.8
20260508081506 60 256 0.0 3.0 0.00 0.00 0.00 88 1014.8
20260508080452 60 150 2.0 3.0 0.00 0.00 0.00 88 1015.1
20260508075436 60 206 2.0 4.0 0.00 0.00 0.00 88 1015.1
20260508073913 60 217 1.0 3.0 0.00 0.00 0.00 87 1015.1
20260508073405 60 204 1.0 3.0 0.00 0.00 0.00 87 1015.1
20260508072858 60 176 3.0 3.0 0.00 0.00 0.00 87 1015.1
20260508072350 60 216 2.0 3.0 0.00 0.00 0.00 87 1015.1
20260508071843 60 267 0.0 3.0 0.00 0.00 0.00 87 1015.1
20260508071335 60 350 0.0 2.0 0.00 0.00 0.00 88 1015.1
20260508070828 60 24 2.0 2.0 0.00 0.00 0.00 87 1015.1
20260508065812 60 294 0.0 3.0 0.00 0.00 0.00 88 1015.1
20260508065307 60 141 1.0 3.0 0.00 0.00 0.00 88 1015.1
20260508064757 60 179 0.0 2.0 0.00 0.00 0.00 88 1015.1
20260508064250 60 178 0.0 2.0 0.00 0.00 0.00 88 1015.1
20260508063234 60 272 0.0 3.0 0.00 0.00 0.00 88 1015.1
20260508062727 60 251 0.0 1.0 0.00 0.00 0.00 88 1015.1
20260508062219 60 252 1.0 1.0 0.00 0.00 0.00 88 1014.8
20260508061713 60 248 0.0 2.0 0.00 0.00 0.00 88 1015.1
20260508061204 60 249 0.0 2.0 0.00 0.00 0.00 88 1014.8
20260508060657 59 199 0.0 3.0 0.00 0.00 0.00 88 1014.8
20260508055642 60 175 4.0 7.0 0.00 0.00 0.00 88 1015.1
20260508055135 60 171 2.0 3.0 0.00 0.00 0.00 88 1014.8
20260508054626 60 132 1.0 4.0 0.00 0.00 0.00 89 1014.8
20260508054119 59 247 0.0 6.0 0.00 0.00 0.00 88 1015.1
20260508053611 60 231 2.0 6.0 0.00 0.00 0.00 88 1015.1